Weather History for KOLU - October, 2012

Change the Weather History Date:

Thursday, October 11, 2012

  Actual Average (KOFK) Record (KOFK)
Temperature  
Mean Temperature 50 °F 53 °F  
Max Temperature 60 °F 66 °F 89 °F (1995)
Min Temperature 39 °F 40 °F 18 °F (1987)
Degree Days  
Heating Degree Days 16 12  
Month to date heating degree days 117  
Since 1 July heating degree days 259  
Cooling Degree Days 0 0  
Month to date cooling degree days 8  
Year to date cooling degree days 914  
Moisture  
Dew Point 27 °F    
Average Humidity 43    
Maximum Humidity 56    
Minimum Humidity 33    
Precipitation  
Precipitation 0.00 in 0.07 in 1.57 in (1912)
Month to date precipitation 0.86  
Year to date precipitation 24.08  
Snow  
Snow 0.00 in 0.00 in - ()
Month to date snowfall 0.1  
Since 1 July snowfall 0.1  
Snow Depth -    
Sea Level Pressure  
Sea Level Pressure 30.12 in    
Wind  
Wind Speed 12 mph (NNW)    
Max Wind Speed 25 mph    
Max Gust Speed 32 mph    
Visibility 10 miles    
Events      
T = Trace of Precipitation, MM = Missing Value Source: NWS Daily Summary

Daily Weather History Graph

Daily Weather History Graph

Search for Another Location

Airport or City:

Trip Planner

Search our weather history database for the weather conditions in past years. The results will help you decide how hot, cold, wet, or windy it might be!

Date:

Astronomy

Oct. 11, 2012 Rise Set
Actual Time 7:37 AM CDT 6:53 PM CDT
Civil Twilight 7:09 AM CDT 7:21 PM CDT
Nautical Twilight 6:37 AM CDT 7:53 PM CDT
Astronomical Twilight 6:05 AM CDT 8:25 PM CDT
Moon 3:14 AM CDT (10/11) 4:33 PM CDT (10/11)
Length of Visible Light 12h 11m
Length of Day
11h 16m
Waning Crescent, 18% of the Moon is Illuminated
Oct 11
Waning Crescent
Oct 15
New
Oct 21
First Quarter
Oct 29
Full
Nov 6
Last Quarter

Hourly Weather History & Observations

Time (CDT) Temp. Windchill Dew Point Humidity Pressure Visibility Wind Dir Wind Speed Gust Speed Precip Events Conditions
12:15 AM 51.8 °F - 24.8 °F 35% 30.01 in 10.0 mi South 12.7 mph - N/A   Clear
12:35 AM 51.8 °F - 24.8 °F 35% 30.01 in 10.0 mi South 13.8 mph - N/A   Clear
12:55 AM 51.8 °F - 24.8 °F 35% 30.00 in 10.0 mi South 13.8 mph - N/A   Clear
1:15 AM 50.0 °F - 24.8 °F 37% 30.00 in 10.0 mi South 11.5 mph 18.4 mph N/A   Clear
1:55 AM 50.0 °F - 24.8 °F 37% 29.99 in 10.0 mi SSW 11.5 mph 19.6 mph N/A   Clear
2:15 AM 48.2 °F - 26.6 °F 43% 29.99 in 10.0 mi SSW 10.4 mph - N/A   Clear
2:35 AM 50.0 °F - 26.6 °F 40% 29.99 in 10.0 mi SSW 10.4 mph - N/A   Clear
2:55 AM 51.8 °F - 26.6 °F 38% 30.00 in 10.0 mi SSW 13.8 mph - N/A   Clear
3:15 AM 50.0 °F - 26.6 °F 40% 29.99 in 10.0 mi SSW 10.4 mph - N/A   Clear
3:35 AM 48.2 °F - 26.6 °F 43% 29.99 in 10.0 mi SSW 10.4 mph - N/A   Clear
3:55 AM 48.2 °F - 26.6 °F 43% 29.99 in 10.0 mi SSW 8.1 mph - N/A   Clear
4:15 AM 46.4 °F 41.9 °F 26.6 °F 46% 29.99 in 10.0 mi SSW 9.2 mph - N/A   Clear
4:35 AM 48.2 °F - 26.6 °F 43% 29.98 in 10.0 mi SSW 9.2 mph - N/A   Clear
4:55 AM 48.2 °F - 26.6 °F 43% 29.98 in 10.0 mi SSW 11.5 mph - N/A   Clear
5:15 AM 48.2 °F - 26.6 °F 43% 29.97 in 10.0 mi SSW 10.4 mph - N/A   Clear
5:35 AM 48.2 °F - 26.6 °F 43% 29.97 in 10.0 mi SSW 13.8 mph 19.6 mph N/A   Clear
5:55 AM 48.2 °F - 26.6 °F 43% 29.98 in 10.0 mi SSW 10.4 mph 16.1 mph N/A   Clear
6:15 AM 48.2 °F - 28.4 °F 46% 29.99 in 10.0 mi SSW 8.1 mph - N/A   Clear
6:35 AM 46.4 °F 43.5 °F 26.6 °F 46% 29.99 in 10.0 mi SSW 5.8 mph - N/A   Clear
6:55 AM 46.4 °F 44.3 °F 26.6 °F 46% 30.00 in 10.0 mi SSW 4.6 mph - N/A   Clear
7:15 AM 44.6 °F 40.7 °F 28.4 °F 53% 30.00 in 10.0 mi SSW 6.9 mph - N/A   Clear
7:35 AM 44.6 °F 40.7 °F 28.4 °F 53% 30.01 in 10.0 mi West 6.9 mph - N/A   Clear
7:55 AM 42.8 °F 39.3 °F 26.6 °F 53% 30.03 in 10.0 mi West 5.8 mph - N/A   Clear
8:15 AM 44.6 °F 40.7 °F 28.4 °F 53% 30.04 in 10.0 mi West 6.9 mph - N/A   Clear
8:35 AM 46.4 °F 44.3 °F 28.4 °F 50% 30.04 in 10.0 mi West 4.6 mph - N/A   Clear
8:55 AM 46.4 °F 45.2 °F 28.4 °F 50% 30.05 in 10.0 mi WSW 3.5 mph - N/A   Clear
9:15 AM 48.2 °F - 28.4 °F 46% 30.06 in 10.0 mi WSW 5.8 mph - N/A   Clear
9:35 AM 50.0 °F - 28.4 °F 43% 30.05 in 10.0 mi WSW 4.6 mph - N/A   Clear
9:55 AM 51.8 °F - 30.2 °F 44% 30.08 in 10.0 mi West 10.4 mph - N/A   Clear
10:15 AM 51.8 °F - 28.4 °F 41% 30.07 in 10.0 mi WNW 5.8 mph - N/A   Clear
10:35 AM 53.6 °F - 30.2 °F 41% 30.07 in 10.0 mi WNW 13.8 mph 17.3 mph N/A   Clear
10:55 AM 55.4 °F - 30.2 °F 38% 30.10 in 10.0 mi NW 15.0 mph 18.4 mph N/A   Clear
11:15 AM 55.4 °F - 30.2 °F 38% 30.09 in 10.0 mi NNW 12.7 mph - N/A   Clear
11:35 AM 55.4 °F - 30.2 °F 38% 30.09 in 10.0 mi North 13.8 mph - N/A   Clear
11:55 AM 57.2 °F - 33.8 °F 41% 30.10 in 10.0 mi North 13.8 mph 20.7 mph N/A   Clear
12:15 PM 57.2 °F - 32.0 °F 38% 30.11 in 10.0 mi NNE 16.1 mph - N/A   Clear
12:55 PM 59.0 °F - 32.0 °F 36% 30.12 in 10.0 mi North 20.7 mph 25.3 mph N/A   Clear
1:15 PM 60.8 °F - 32.0 °F 34% 30.13 in 10.0 mi North 19.6 mph 26.5 mph N/A   Clear
1:35 PM 57.2 °F - 30.2 °F 36% 30.13 in 10.0 mi NNE 23.0 mph - N/A   Clear
1:55 PM 57.2 °F - 32.0 °F 38% 30.14 in 10.0 mi North 19.6 mph 25.3 mph N/A   Clear
2:15 PM 57.2 °F - 30.2 °F 36% 30.14 in 10.0 mi NNE 18.4 mph 24.2 mph N/A   Clear
2:35 PM 57.2 °F - 30.2 °F 36% 30.14 in 10.0 mi NNE 25.3 mph 32.2 mph N/A   Clear
2:55 PM 57.2 °F - 32.0 °F 38% 30.15 in 10.0 mi NNE 25.3 mph 31.1 mph N/A   Clear
3:15 PM 55.4 °F - 30.2 °F 38% 30.16 in 10.0 mi NNE 25.3 mph 29.9 mph N/A   Clear
3:55 PM 57.2 °F - 30.2 °F 36% 30.17 in 10.0 mi North 23.0 mph 31.1 mph N/A   Clear
4:15 PM 55.4 °F - 30.2 °F 38% 30.18 in 10.0 mi NNE 17.3 mph 25.3 mph N/A   Clear
4:35 PM 53.6 °F - 28.4 °F 38% 30.18 in 10.0 mi NNE 20.7 mph 28.8 mph N/A   Clear
5:35 PM 53.6 °F - 26.6 °F 35% 30.21 in 10.0 mi NNE 19.6 mph 26.5 mph N/A   Clear
5:55 PM 53.6 °F - 24.8 °F 33% 30.21 in 10.0 mi NNE 20.7 mph - N/A   Clear
6:35 PM 50.0 °F - 24.8 °F 37% 30.23 in 10.0 mi NNE 13.8 mph 21.9 mph N/A   Clear
6:55 PM 48.2 °F - 24.8 °F 40% 30.25 in 10.0 mi NNE 11.5 mph - N/A   Clear
7:15 PM 46.4 °F 40.7 °F 24.8 °F 43% 30.26 in 10.0 mi NNE 12.7 mph - N/A   Clear
7:35 PM 46.4 °F 41.9 °F 24.8 °F 43% 30.27 in 10.0 mi NNE 9.2 mph - N/A   Clear
7:55 PM 44.6 °F 40.2 °F 23.0 °F 43% 30.29 in 10.0 mi NNE 8.1 mph - N/A   Clear
8:15 PM 42.8 °F 38.6 °F 23.0 °F 46% 30.29 in 10.0 mi NNE 6.9 mph - N/A   Clear
8:35 PM 42.8 °F 37.5 °F 23.0 °F 46% 30.30 in 10.0 mi NNE 9.2 mph - N/A   Clear
8:55 PM 42.8 °F 37.5 °F 23.0 °F 46% 30.31 in 10.0 mi NNE 9.2 mph - N/A   Clear
9:15 PM 41.0 °F 35.2 °F 23.0 °F 49% 30.32 in 10.0 mi NNE 9.2 mph - N/A   Clear
9:35 PM 41.0 °F 35.2 °F 23.0 °F 49% 30.32 in 10.0 mi NNE 9.2 mph - N/A   Clear
9:55 PM 41.0 °F 34.7 °F 23.0 °F 49% 30.33 in 10.0 mi NNE 10.4 mph - N/A   Clear
10:35 PM 39.2 °F 33.0 °F 24.8 °F 56% 30.34 in 10.0 mi NNE 9.2 mph - N/A   Clear
10:55 PM 39.2 °F 33.0 °F 24.8 °F 56% 30.35 in 10.0 mi NNE 9.2 mph - N/A   Clear
11:15 PM 39.2 °F 32.5 °F 24.8 °F 56% 30.35 in 10.0 mi NE 10.4 mph - N/A   Clear
11:35 PM 39.2 °F 32.0 °F 23.0 °F 52% 30.35 in 10.0 mi NE 11.5 mph - N/A   Clear
11:55 PM 39.2 °F 32.5 °F 21.2 °F 49% 30.36 in 10.0 mi NE 10.4 mph - N/A   Clear